Location: New Mesquite
(33.1168°N, 96.4336°W)
Time: 11:18:59
(UTC+00:00)

Meteor 2-15 Rocket - Pass Details

Date: 08 December 2021
Orbit: 939 x 956 km, 82.5° (Epoch: 22 January)

Event Time Altitude Azimuth Distance (km) Brightness Sun altitude
Rises 12:06:40 0° 351° (N) 3,607 7.2 -14.4°
Reaches altitude 10° 12:09:09 10° 350° (N) 2,658 6.5 -13.9°
Maximum altitude 12:15:12 76° 266° (W) 970 4.4 -12.7°
Drops below altitude 10° 12:21:14 10° 181° (S) 2,643 7.0 -11.5°
Sets 12:23:42 0° 180° (S) 3,585 7.7 -11.0°
